Location: Rancho Del Sol Observatory
(38.7214°N, 120.6350°W)
Time: 07:22:22
(UTC-08:00)

A-11 Canister half - Pass Details

Date: 31 January 2020
Orbit: 1517 x 1683 km, 47.2° (Epoch: 26 February)

Event Time Altitude Azimuth Distance (km) Brightness Sun altitude
Rises 02:29:21 0° 295° (WNW) 4,697 - -54.0°
Reaches altitude 10° 02:32:29 10° 299° (WNW) 3,699 - -53.5°
Maximum altitude 02:41:42 63° 20° (NNE) 1,660 - -51.8°
Exits shadow 02:46:49 29° 91° (E) 2,481 10.3 -50.9°
Drops below altitude 10° 02:50:53 10° 101° (E) 3,685 11.4 -50.2°
Sets 02:53:59 0° 104° (ESE) 4,678 12.0 -49.6°
